[[{"header":{"parameterUnit":"m.s-1","parameterCategory":2,"la1":30.2991,"la2":30.254,"lo1":-89.0895,"lo2":-89.0444,"dy":0.0017,"dx":0.0017,"nx":28,"ny":28,"refTime":"2025-03-17T03:00:00:Z","depth":"0","parameterNumber":2,"parameterNumberName":"U-component_of_CURRENTS"},"data":[0,0,0,0,0,0,0,0,0,0,0,0,0,0,0,0,0,0,0,0,0,0,0,0,0,0,0,0,0,0,0,0,0,0,0,0,0,0,0,0,0,0,0,0,0,0,0,0,0,0,0,0,0,0,0,0,0,0,0.3306,0.3307,0,0.3338,0.3338,0.3338,0.3309,0.3308,0.3307,0.3306,0.3242,0.3242,0.3241,0,0,0,0,0,0,0,0,0,0,0,0,0,0.3356,0.3354,0.3306,0.3307,0.3308,0.3338,0.3338,0.3338,0.3309,0.3308,0.3307,0.3306,0.3243,0.3242,0.3241,0,0,0,0,0,0,0,0,0,0,0,0,0,0.3352,0.3353,0.3306,0.3299,0.3299,0.3338,0.3338,0.3338,0.3309,0.3308,0.3307,0.3305,0.3243,0.3242,0.324,0.3258,0,0,0.3236,0.3236,0,0,0,0,0,0,0,0,0.3352,0.335,0.3299,0.33,0.33,0.3321,0.3333,0.3308,0.3309,0.3302,0.3306,0.3305,0.3263,0.326,0.3265,0.3255,0.3253,0.3236,0.3235,0.3235,0.3234,0,0,0,0,0,0,0,0.3352,0.3349,0.3315,0.33,0.3301,0.3342,0.3338,0.3329,0.3285,0.3302,0.3301,0.3311,0.3262,0.3267,0.3263,0.3252,0.3236,0.3235,0.3234,0.3234,0.3263,0.3265,0,0,0,0,0,0,0.3349,0.3348,0.3314,0.3316,0.3327,0.3341,0.3337,0.3313,0.3287,0.3284,0.3312,0.3309,0.327,0.3265,0.3261,0.3277,0.3235,0.3234,0.3233,0.3262,0.3264,0.3266,0,0,0,0,0,0,0.335,0.3345,0.3313,0.3339,0.3338,0.3341,0.3315,0.3314,0.3318,0.3296,0.3289,0.3316,0.3269,0.3263,0.3271,0.3274,0.3233,0.3232,0.326,0.3263,0.3265,0.331,0,0,0,0,0,0,0.335,0.3344,0.3329,0.3337,0.3336,0.3338,0.3316,0.3316,0.3327,0.3324,0.3298,0.329,0.3267,0.3274,0.327,0.3271,0.3231,0.3258,0.3261,0.3264,0.3306,0.3314,0.332,0,0,0,0,0,0.3351,0.3344,0.3327,0.3324,0.3312,0.334,0.3343,0.3341,0.3329,0.3337,0.3331,0.3291,0.3289,0.3275,0.327,0.327,0.3257,0.326,0.3264,0.3303,0.3312,0.3319,0,0,0,0,0,0,0.3337,0.3341,0.3322,0.3307,0.3321,0.3336,0.335,0.3347,0.335,0.3344,0.3316,0.331,0.332,0.3299,0.3284,0.3291,0.3264,0.3267,0.3296,0.3304,0.3311,0.3285,0.323,0,0,0,0,0,0.3332,0.3332,0.3337,0.3322,0.3334,0.3341,0.3353,0.3351,0.3358,0.3357,0.3345,0.3334,0.3334,0.3322,0.3321,0.3324,0.3319,0.3322,0.3329,0.3334,0.3313,0.3328,0.3333,0.3277,0.3277,0.3277,0,0,0.3319,0.3324,0.3319,0.3323,0.3333,0.3345,0.3344,0.3365,0.3367,0.335,0.3355,0.3362,0.3346,0.3355,0.3355,0.3332,0.3358,0.3339,0.3343,0.3318,0.3332,0.3337,0.3342,0.328,0.3279,0.3279,0,0,0.3301,0.3302,0.3295,0.3316,0.3339,0.3357,0.3364,0.3385,0.3387,0.341,0.3395,0.3399,0.3408,0.3384,0.3375,0.3416,0.3402,0.343,0.3425,0.3441,0.3445,0.3448,0.3486,0.3492,0.3421,0.3421,0.3421,0,0.3269,0.3264,0.33,0.3305,0.332,0.3361,0.3358,0.3381,0.3399,0.34,0.3416,0.3426,0.3412,0.3396,0.3418,0.3423,0.3452,0.3394,0.3448,0.345,0.3453,0.349,0.3496,0.3423,0.3423,0.3423,0.3422,0,0.325,0.325,0.3261,0.3274,0.33,0.3319,0.3355,0.3383,0.3409,0.3418,0.3435,0.3441,0.3433,0.3444,0.3445,0.3452,0.3477,0.3465,0.3422,0.3461,0.3499,0.3505,0.3427,0.3426,0.3425,0.3425,0,0,0.3128,0.3224,0.3213,0.3229,0.3287,0.3301,0.3337,0.3364,0.3374,0.3413,0.3421,0.343,0.3439,0.343,0.3432,0.3445,0.3504,0.3471,0.3471,0.3498,0.3578,0.3454,0.3448,0.352,0.3521,0.3521,0.3611,0,0.308,0.3101,0.3155,0.3169,0.3192,0.3258,0.3279,0.3313,0.3365,0.3399,0.3413,0.343,0.3432,0.3444,0.3457,0.3498,0.3516,0.3482,0.3542,0.3544,0.3419,0.3447,0.3242,0.3291,0.3616,0.3617,0.3617,0,0.3014,0.3049,0.3064,0.3133,0.314,0.3154,0.321,0.3237,0.3304,0.3342,0.3374,0.3412,0.3435,0.3445,0.3502,0.3496,0.3534,0.3564,0.3568,0.3426,0.3427,0.3298,0.3289,0.3218,0.3625,0.3625,0.3624,0,0.2924,0.2971,0.2992,0.3015,0.31,0.3107,0.3142,0.3204,0.3238,0.3313,0.3361,0.3393,0.3427,0.3477,0.354,0.3544,0.3622,0.3624,0.3543,0.3537,0.3351,0.3325,0.3254,0.3653,0.3652,0.3652,0.3652,0,0.2864,0.287,0.2953,0.2969,0.2977,0.304,0.3058,0.3111,0.3185,0.3224,0.3315,0.3356,0.3444,0.3507,0.3557,0.3559,0.3627,0.3533,0.3537,0.3365,0.3341,0.3259,0.3238,0.3656,0.3655,0.3654,0.3654,0,0.2782,0.284,0.2869,0.2935,0.295,0.2953,0.3025,0.3048,0.3126,0.3195,0.3226,0.3348,0.3418,0.3495,0.3581,0.3554,0.3465,0.3567,0.3367,0.3341,0.3148,0.3137,0.295,0.287,0.3482,0.3479,0.3477,0,0.2754,0.2766,0.2831,0.2849,0.2883,0.2907,0.2929,0.3008,0.3049,0.3178,0.3207,0.3308,0.3352,0.3426,0.3391,0.3417,0.3373,0.3243,0.3166,0.3088,0.3082,0.2999,0.2943,0.298,0.2973,0.2968,0.2964,0,0.271,0.2734,0.2772,0.2805,0.2828,0.285,0.289,0.2914,0.3011,0.3064,0.3128,0.3173,0.3214,0.3124,0.3138,0.313,0.3038,0.3135,0.31,0.2696,0.2554,0.2496,0.3011,0.2919,0.2923,0.2927,0.2929,0.2931,0.2678,0.2689,0.2744,0.2763,0.2786,0.2789,0.277,0.2824,0.2857,0.29,0.2993,0.2985,0.2921,0.2883,0.2861,0.2651,0.2715,0.2556,0.2565,0.2503,0.2337,0.2747,0.2617,0.262,0.2622,0.2624,0.2626,0,0.2655,0.268,0.2699,0.272,0.27,0.273,0.2739,0.2699,0.2687,0.2742,0.2755,0.2628,0.2509,0.2456,0.2231,0.2109,0.2038,0.206,0.1915,0.1906,0.2306,0.2192,0.1905,0.1905,0.1905,0.1905,0.1905,0.1905,0.2655,0.2669,0.2671,0.2632,0.2623,0.2548,0.252,0.2478,0.2478,0.2369,0.2274,0.2264,0.217,0.1976,0.1779,0.1734,0.1646,0.15,0.1603,0.1909,0.1958,0.2004,0.1892,0.1546,0.1546,0.1084,0.1081,0.1078]},{"header":{"parameterUnit":"m.s-1","parameterCategory":2,"la1":30.2991,"la2":30.254,"lo1":-89.0895,"lo2":-89.0444,"dy":0.0017,"dx":0.0017,"nx":28,"ny":28,"refTime":"2025-03-17T03:00:00:Z","depth":"0","parameterNumber":3,"parameterNumberName":"V-component_of_CURRENTS"},"data":[0,0,0,0,0,0,0,0,0,0,0,0,0,0,0,0,0,0,0,0,0,0,0,0,0,0,0,0,0,0,0,0,0,0,0,0,0,0,0,0,0,0,0,0,0,0,0,0,0,0,0,0,0,0,0,0,0,0,-0.1127,-0.1127,0,-0.1121,-0.1122,-0.1122,-0.1222,-0.1224,-0.1226,-0.1227,-0.1329,-0.133,-0.1331,0,0,0,0,0,0,0,0,0,0,0,0,0,-0.1183,-0.1182,-0.1127,-0.1127,-0.1126,-0.1121,-0.1122,-0.1122,-0.1221,-0.1224,-0.1226,-0.1228,-0.1329,-0.133,-0.1331,0,0,0,0,0,0,0,0,0,0,0,0,0,-0.1173,-0.1182,-0.1127,-0.1169,-0.1172,-0.1121,-0.1122,-0.1123,-0.1221,-0.1224,-0.1227,-0.123,-0.1328,-0.1329,-0.1331,-0.1279,0,0,-0.1335,-0.1335,0,0,0,0,0,0,0,0,-0.1174,-0.1172,-0.1164,-0.1166,-0.1169,-0.1169,-0.1178,-0.1178,-0.122,-0.121,-0.1228,-0.1231,-0.1278,-0.1283,-0.1285,-0.1284,-0.1288,-0.1335,-0.1336,-0.1336,-0.1336,0,0,0,0,0,0,0,-0.1174,-0.1173,-0.1133,-0.1162,-0.1166,-0.1173,-0.1176,-0.1178,-0.1235,-0.1211,-0.1217,-0.1203,-0.1282,-0.1284,-0.1288,-0.129,-0.1335,-0.1336,-0.1337,-0.1337,-0.1198,-0.1193,0,0,0,0,0,0,-0.1158,-0.1173,-0.1133,-0.1132,-0.117,-0.1169,-0.1173,-0.1172,-0.1233,-0.1242,-0.12,-0.1207,-0.128,-0.1287,-0.1292,-0.1197,-0.1336,-0.1337,-0.1338,-0.1202,-0.1197,-0.1192,0,0,0,0,0,0,-0.116,-0.1155,-0.1133,-0.1146,-0.1143,-0.1164,-0.1163,-0.117,-0.1169,-0.1222,-0.1236,-0.1191,-0.1283,-0.1291,-0.1266,-0.1204,-0.1338,-0.1339,-0.1207,-0.12,-0.1194,-0.1031,0,0,0,0,0,0,-0.1162,-0.1156,-0.1139,-0.1145,-0.1141,-0.1082,-0.1159,-0.1168,-0.1153,-0.1162,-0.1218,-0.1231,-0.1286,-0.1263,-0.1267,-0.1208,-0.134,-0.1213,-0.1204,-0.1196,-0.1042,-0.102,-0.1001,0,0,0,0,0,-0.1164,-0.1117,-0.1139,-0.1133,-0.1121,-0.1079,-0.1077,-0.1109,-0.1149,-0.1125,-0.1157,-0.1229,-0.1213,-0.126,-0.1266,-0.1206,-0.1217,-0.1207,-0.1197,-0.1052,-0.1024,-0.1001,0,0,0,0,0,0,-0.1079,-0.1122,-0.1147,-0.1102,-0.1085,-0.1092,-0.1058,-0.1087,-0.1092,-0.1105,-0.1177,-0.1188,-0.1146,-0.1181,-0.1231,-0.1135,-0.1224,-0.1214,-0.1111,-0.1086,-0.1065,-0.1046,-0.1341,0,0,0,0,0,-0.1061,-0.1071,-0.1077,-0.103,-0.1023,-0.104,-0.1024,-0.1046,-0.105,-0.1058,-0.1095,-0.1114,-0.1103,-0.1102,-0.1109,-0.1051,-0.1067,-0.1011,-0.099,-0.0972,-0.0954,-0.0908,-0.0882,-0.1159,-0.1159,-0.1159,0,0,-0.1005,-0.1029,-0.1026,-0.1018,-0.1012,-0.0968,-0.1039,-0.0999,-0.0963,-0.1063,-0.1024,-0.1048,-0.1071,-0.1015,-0.0997,-0.104,-0.0895,-0.096,-0.0945,-0.0936,-0.0894,-0.0868,-0.0844,-0.1152,-0.1153,-0.1154,0,0,-0.0889,-0.0924,-0.0894,-0.089,-0.0879,-0.0891,-0.0874,-0.0878,-0.0885,-0.0845,-0.0896,-0.0863,-0.0876,-0.0856,-0.0853,-0.0707,-0.079,-0.0722,-0.06,-0.0553,-0.0531,-0.0512,-0.0479,-0.0458,-0.0707,-0.0706,-0.0706,0,-0.0805,-0.0796,-0.086,-0.0821,-0.08,-0.0851,-0.0784,-0.078,-0.0774,-0.0751,-0.0814,-0.0759,-0.0788,-0.0682,-0.0643,-0.066,-0.0668,-0.0702,-0.0528,-0.051,-0.0493,-0.0464,-0.0443,-0.0697,-0.0698,-0.0699,-0.07,0,-0.0688,-0.0672,-0.0637,-0.0639,-0.0614,-0.0565,-0.0576,-0.0558,-0.0587,-0.0579,-0.0505,-0.0526,-0.05,-0.0486,-0.0533,-0.0404,-0.0459,-0.0515,-0.06,-0.0455,-0.0434,-0.0415,-0.0684,-0.0688,-0.069,-0.0693,0,0,-0.0509,-0.0554,-0.0537,-0.0531,-0.0529,-0.0494,-0.0434,-0.0382,-0.0336,-0.033,-0.0244,-0.021,-0.024,-0.0233,-0.0266,-0.0218,-0.0106,-0.0317,-0.0319,-0.0298,-0.0018,-0.0064,-0.005,-0.0152,-0.0148,-0.0145,-0.0047,0,-0.0385,-0.0323,-0.0367,-0.0274,-0.0244,-0.0288,-0.0226,-0.0191,-0.0188,-0.0123,-0.0105,-0.0046,-0.0136,-0.0122,-0.0082,-0.0116,-0.0052,-0.0128,-0.015,-0.0149,-0.022,-0.0027,-0.0033,0.0053,-0.0029,-0.0026,-0.0024,0,-0.0259,-0.0248,-0.0166,-0.0153,-0.0134,-0.0086,-0.0032,0.0015,0.0084,0.0094,0.0152,0.0137,0.0221,0.0112,0.0161,0.0101,0.0067,0.0045,0.0047,-0.0042,-0.016,-0.0106,0.0089,0.0018,0.0004,0.0002,-0.0,0,-0.0158,-0.0102,-0.0054,-0.0047,-0.0027,0.001,0.0033,0.0088,0.0149,0.0233,0.0294,0.0349,0.039,0.0362,0.0281,0.0221,0.0323,0.0232,0.0183,0.0177,0.0149,0.0134,0.0262,0.0312,0.0312,0.0312,0.0311,0,-0.0049,0.0002,-0.0015,0.0009,0.0098,0.0085,0.0192,0.0213,0.03,0.0421,0.0406,0.0513,0.045,0.0474,0.0376,0.0342,0.0397,0.0257,0.0225,0.0207,0.0197,0.0108,0.0049,0.0315,0.0314,0.0314,0.0313,0,0.0041,0.0025,0.0084,0.0111,0.013,0.0187,0.0271,0.0354,0.0408,0.0562,0.0603,0.067,0.0692,0.0623,0.0599,0.0483,0.0402,0.0417,0.0391,0.0355,0.0205,0.0155,0.0239,0.0206,0.0391,0.039,0.039,0,0.0084,0.0111,0.0153,0.0197,0.0208,0.0284,0.0352,0.0406,0.0502,0.0665,0.0764,0.0839,0.091,0.0849,0.068,0.0558,0.0459,0.045,0.035,0.0256,0.0177,0.0134,0.0096,0.0386,0.0385,0.0385,0.0385,0,0.0172,0.0173,0.0213,0.029,0.0355,0.0446,0.054,0.0629,0.0724,0.0853,0.1014,0.1082,0.1038,0.0932,0.0749,0.0627,0.0392,0.0441,0.0377,0.0238,0.0173,0.0103,0.0241,0.0384,0.0384,0.0384,0.0384,0.0384,0.0239,0.028,0.0318,0.0397,0.0479,0.0588,0.0672,0.0792,0.0944,0.1128,0.1182,0.1309,0.114,0.0894,0.0721,0.0406,0.0408,0.0295,0.0261,0.0239,0.0169,0.0297,0.0367,0.0367,0.0367,0.0367,0.0367,0,0.0315,0.0352,0.043,0.0515,0.0614,0.0638,0.0792,0.0883,0.1055,0.1242,0.1369,0.1382,0.1163,0.0896,0.0481,0.0269,0.0175,0.016,0.0115,0.0097,0.0254,0.0211,0.0212,0.0212,0.0212,0.0212,0.0212,0.0212,0.0359,0.0428,0.0454,0.0604,0.0678,0.0802,0.0884,0.1022,0.1168,0.1373,0.1481,0.1551,0.1362,0.0698,0.0251,0.0136,0.0006,-0.0027,-0.0077,0.0024,0.0034,0.0043,-0.0008,-0.0053,-0.0053,-0.0221,-0.0223,-0.0224]}],[{"header":{"parameterUnit":"m.s-1","parameterCategory":2,"la1":30.2991,"la2":30.254,"lo1":-89.0895,"lo2":-89.0444,"dy":0.0017,"dx":0.0017,"nx":28,"ny":28,"refTime":"2025-03-17T03:00:00:Z","depth":"2","parameterNumber":2,"parameterNumberName":"U-component_of_CURRENTS"},"data":[0,0,0,0,0,0,0,0,0,0,0,0,0,0,0,0,0,0,0,0,0,0,0,0,0,0,0,0,0,0,0,0,0,0,0,0,0,0,0,0,0,0,0,0,0,0,0,0,0,0,0,0,0,0,0,0,0,0,0.2052,0.2051,0,0.215,0.2152,0.2155,0.2202,0.2201,0.2199,0.2198,0.2031,0.2028,0.2025,0,0,0,0,0,0,0,0,0,0,0,0,0,0.2132,0.213,0.2052,0.2051,0.2051,0.215,0.2153,0.2155,0.2203,0.2201,0.2199,0.2197,0.2032,0.2028,0.2024,0,0,0,0,0,0,0,0,0,0,0,0,0,0.2166,0.213,0.2052,0.2074,0.2076,0.2149,0.2153,0.2156,0.2203,0.2201,0.2198,0.2196,0.2033,0.2028,0.2024,0.2042,0,0,0.201,0.2008,0,0,0,0,0,0,0,0,0.2163,0.2165,0.2071,0.2073,0.2075,0.2147,0.2119,0.2099,0.2204,0.2172,0.2198,0.2195,0.2036,0.2031,0.2082,0.2034,0.2027,0.201,0.2007,0.2005,0.2004,0,0,0,0,0,0,0,0.2161,0.2162,0.2107,0.2071,0.2073,0.2156,0.2159,0.2119,0.2123,0.2175,0.2174,0.216,0.2037,0.2087,0.2077,0.2024,0.201,0.2006,0.2003,0.2001,0.1987,0.1989,0,0,0,0,0,0,0.2106,0.2158,0.2104,0.2108,0.2096,0.2155,0.2158,0.214,0.213,0.2123,0.2162,0.2161,0.2096,0.2082,0.2071,0.206,0.2005,0.2001,0.1998,0.1984,0.1987,0.199,0,0,0,0,0,0,0.2107,0.21,0.2099,0.2123,0.2127,0.2152,0.2134,0.2142,0.2188,0.212,0.2111,0.2195,0.2093,0.2077,0.2003,0.2053,0.1999,0.1995,0.1982,0.1985,0.1988,0.2055,0,0,0,0,0,0,0.2109,0.21,0.2112,0.2119,0.2122,0.2136,0.2135,0.2145,0.2174,0.2176,0.2144,0.2128,0.209,0.201,0.1998,0.2046,0.1991,0.1979,0.1983,0.1987,0.205,0.206,0.2069,0,0,0,0,0,0.2112,0.2125,0.2112,0.2107,0.2122,0.2135,0.2149,0.2171,0.2178,0.2206,0.2155,0.2129,0.2033,0.2006,0.1992,0.204,0.1977,0.1982,0.1987,0.2046,0.2058,0.2069,0,0,0,0,0,0,0.2161,0.2129,0.2116,0.2116,0.2116,0.2136,0.2176,0.218,0.2182,0.2178,0.2118,0.2097,0.2064,0.2042,0.2015,0.2057,0.2018,0.2021,0.2068,0.2079,0.2089,0.2087,0.1987,0,0,0,0,0,0.2171,0.2165,0.2146,0.2139,0.2152,0.2169,0.2191,0.2194,0.2175,0.2182,0.2151,0.2123,0.2088,0.2066,0.2036,0.2034,0.2029,0.2073,0.2083,0.2091,0.2085,0.2116,0.2127,0.2007,0.2007,0.2007,0,0,0.2157,0.2159,0.2139,0.2149,0.2168,0.2166,0.2183,0.2208,0.2203,0.2152,0.2156,0.2138,0.2089,0.2089,0.2079,0.2067,0.213,0.2098,0.2104,0.2094,0.2123,0.2134,0.2144,0.2011,0.201,0.2009,0,0,0.214,0.2162,0.2153,0.2168,0.2186,0.2194,0.2193,0.2219,0.2246,0.2222,0.22,0.2197,0.2151,0.2149,0.2129,0.2175,0.2169,0.22,0.225,0.2282,0.2291,0.2299,0.233,0.234,0.2218,0.2218,0.2218,0,0.2137,0.213,0.2154,0.2167,0.2175,0.2192,0.2188,0.2216,0.2209,0.2232,0.2215,0.2226,0.2179,0.2193,0.2211,0.2196,0.2214,0.2202,0.2292,0.23,0.2307,0.2336,0.2346,0.2222,0.2221,0.2221,0.222,0,0.2096,0.2119,0.2131,0.2132,0.2145,0.2163,0.2168,0.2205,0.2227,0.2246,0.2288,0.227,0.2284,0.2297,0.2244,0.2311,0.2308,0.2288,0.2256,0.2323,0.235,0.236,0.2227,0.2226,0.2225,0.2224,0,0,0.202,0.2087,0.2092,0.2115,0.2146,0.2146,0.2162,0.2194,0.2241,0.2267,0.2319,0.2312,0.2366,0.2351,0.236,0.2388,0.2447,0.2366,0.2366,0.2384,0.2528,0.2398,0.2396,0.245,0.2452,0.2453,0.2533,0,0.1992,0.2017,0.2051,0.2058,0.208,0.2126,0.2141,0.217,0.2233,0.2294,0.2334,0.237,0.2372,0.2406,0.2441,0.2435,0.2473,0.2427,0.247,0.2471,0.2337,0.2402,0.2209,0.2252,0.2542,0.2544,0.2545,0,0.1948,0.1985,0.1998,0.2072,0.2086,0.2089,0.2171,0.2192,0.228,0.2328,0.2414,0.2449,0.2505,0.2485,0.2562,0.254,0.2538,0.2537,0.254,0.2394,0.2357,0.223,0.2258,0.256,0.2559,0.2558,0.2557,0,0.1894,0.1956,0.1978,0.1994,0.2056,0.2092,0.2127,0.2217,0.2265,0.2371,0.2427,0.2516,0.2554,0.2594,0.26,0.2593,0.2656,0.2646,0.2539,0.2531,0.2358,0.233,0.2687,0.2687,0.2687,0.2687,0.2686,0,0.1869,0.1891,0.1971,0.198,0.2028,0.2078,0.2163,0.2216,0.231,0.2371,0.2465,0.2519,0.2579,0.2624,0.263,0.2613,0.2695,0.2551,0.2541,0.2377,0.2351,0.2601,0.259,0.269,0.2689,0.2688,0.2688,0,0.1814,0.186,0.19,0.198,0.2009,0.2043,0.215,0.2213,0.2318,0.2405,0.2425,0.2514,0.2564,0.2625,0.2658,0.2632,0.263,0.2595,0.2392,0.2355,0.2487,0.2479,0.2512,0.2508,0.2505,0.2502,0.25,0,0.1793,0.1814,0.1886,0.191,0.1959,0.2035,0.2083,0.2186,0.2242,0.2393,0.2397,0.2481,0.2491,0.2513,0.2472,0.2473,0.2547,0.228,0.2208,0.248,0.2469,0.2466,0.2463,0.2033,0.2027,0.2022,0.2018,0,0.1768,0.1799,0.1818,0.1869,0.1921,0.1979,0.2058,0.2073,0.2195,0.2257,0.2281,0.2298,0.2335,0.22,0.2202,0.2177,0.2266,0.2175,0.2532,0.2082,0.2027,0.2016,0.2029,0.1975,0.1979,0.1982,0.1985,0.1986,0.1742,0.1759,0.1787,0.1824,0.1874,0.1893,0.1891,0.1941,0.1959,0.1987,0.2075,0.2037,0.2055,0.1913,0.1855,0.1823,0.1983,0.1905,0.1922,0.1943,0.1848,0.1787,0.1674,0.1676,0.1679,0.1681,0.1682,0,0.1719,0.1732,0.1749,0.1772,0.1766,0.1831,0.1842,0.179,0.1733,0.1772,0.1761,0.1602,0.1515,0.1553,0.1429,0.1421,0.1431,0.1366,0.1375,0.1419,0.1458,0.1339,0.1029,0.1027,0.1025,0.1024,0,0,0.1699,0.1681,0.1677,0.1644,0.1665,0.1611,0.1576,0.1504,0.1474,0.1359,0.1317,0.1416,0.1482,0.1231,0.1205,0.1093,0.1247,0.1045,0.157,0.1623,0.1659,0.1769,0.1634,0,0,0,0,0]},{"header":{"parameterUnit":"m.s-1","parameterCategory":2,"la1":30.2991,"la2":30.254,"lo1":-89.0895,"lo2":-89.0444,"dy":0.0017,"dx":0.0017,"nx":28,"ny":28,"refTime":"2025-03-17T03:00:00:Z","depth":"2","parameterNumber":3,"parameterNumberName":"V-component_of_CURRENTS"},"data":[0,0,0,0,0,0,0,0,0,0,0,0,0,0,0,0,0,0,0,0,0,0,0,0,0,0,0,0,0,0,0,0,0,0,0,0,0,0,0,0,0,0,0,0,0,0,0,0,0,0,0,0,0,0,0,0,0,0,0.0427,0.0427,0,0.0369,0.0367,0.0366,0.0333,0.0334,0.0335,0.0335,0.0372,0.0372,0.0373,0,0,0,0,0,0,0,0,0,0,0,0,0,0.0397,0.0398,0.0427,0.0427,0.0427,0.0369,0.0367,0.0366,0.0333,0.0334,0.0335,0.0335,0.0372,0.0372,0.0373,0,0,0,0,0,0,0,0,0,0,0,0,0,0.0374,0.0398,0.0427,0.041,0.0409,0.0369,0.0367,0.0365,0.0333,0.0334,0.0335,0.0336,0.0372,0.0372,0.0373,0.0356,0,0,0.0374,0.0375,0,0,0,0,0,0,0,0,0.0375,0.0374,0.0413,0.0412,0.041,0.0367,0.037,0.037,0.0333,0.0353,0.0335,0.0336,0.0384,0.0383,0.0357,0.0358,0.0359,0.0374,0.0375,0.0375,0.0375,0,0,0,0,0,0,0,0.0377,0.0376,0.0396,0.0413,0.0411,0.0367,0.0365,0.0368,0.0359,0.0351,0.0351,0.0357,0.0383,0.0356,0.0358,0.036,0.0374,0.0375,0.0375,0.0375,0.032,0.0318,0,0,0,0,0,0,0.0406,0.0378,0.0398,0.0395,0.0404,0.0368,0.0365,0.0373,0.0357,0.0357,0.0356,0.0356,0.0355,0.0357,0.0359,0.0359,0.0375,0.0375,0.0376,0.0322,0.032,0.0318,0,0,0,0,0,0,0.0406,0.0408,0.04,0.0391,0.0388,0.0369,0.0377,0.0371,0.034,0.0361,0.0361,0.0333,0.0356,0.0359,0.0369,0.0361,0.0376,0.0376,0.0324,0.0321,0.0319,0.0348,0,0,0,0,0,0,0.0405,0.0408,0.0402,0.0394,0.039,0.0385,0.0376,0.037,0.0347,0.0346,0.0341,0.0345,0.0357,0.0368,0.0369,0.0362,0.0377,0.0326,0.0323,0.032,0.0349,0.0347,0.0344,0,0,0,0,0,0.0404,0.0389,0.0402,0.0404,0.039,0.0385,0.0378,0.0361,0.0345,0.0334,0.0335,0.0345,0.0346,0.0368,0.037,0.0362,0.0328,0.0324,0.032,0.035,0.0347,0.0344,0,0,0,0,0,0,0.0358,0.0385,0.0399,0.039,0.0398,0.0383,0.0361,0.0353,0.0335,0.0333,0.0341,0.0346,0.0347,0.0339,0.0362,0.0327,0.033,0.0326,0.0352,0.0349,0.0347,0.0372,0.0377,0,0,0,0,0,0.0354,0.036,0.038,0.0375,0.0377,0.0366,0.0354,0.0353,0.0348,0.0338,0.0341,0.0331,0.0327,0.033,0.0326,0.0318,0.0316,0.0303,0.03,0.0299,0.0315,0.03,0.0299,0.0305,0.0305,0.0305,0,0,0.0346,0.0352,0.0361,0.0367,0.0363,0.0374,0.0358,0.0348,0.0355,0.0349,0.0344,0.0332,0.0322,0.0316,0.0313,0.0315,0.0291,0.0294,0.0293,0.031,0.0296,0.0296,0.0296,0.0302,0.0302,0.0303,0,0,0.0331,0.033,0.0336,0.0345,0.0354,0.0357,0.0358,0.0352,0.0343,0.0347,0.0335,0.0323,0.0315,0.0309,0.0303,0.0278,0.0281,0.0257,0.0273,0.0258,0.0259,0.026,0.0248,0.0248,0.0255,0.0255,0.0255,0,0.0318,0.0335,0.0334,0.0342,0.0359,0.0355,0.0376,0.0361,0.0361,0.0365,0.0354,0.0328,0.0315,0.0312,0.0295,0.0279,0.0271,0.0296,0.026,0.0261,0.0261,0.0249,0.0249,0.0255,0.0255,0.0255,0.0255,0,0.0324,0.0335,0.0332,0.0361,0.037,0.0382,0.0396,0.0394,0.0386,0.0384,0.0378,0.0352,0.0342,0.0315,0.0302,0.0285,0.0278,0.0266,0.0282,0.0263,0.025,0.0249,0.0257,0.0256,0.0256,0.0256,0,0,0.0321,0.034,0.0344,0.0371,0.0388,0.0406,0.0416,0.0439,0.0456,0.043,0.0448,0.0402,0.0381,0.037,0.0338,0.0314,0.0294,0.0289,0.0288,0.0304,0.0265,0.0242,0.0239,0.028,0.028,0.028,0.0254,0,0.0337,0.0365,0.0372,0.0417,0.0441,0.0455,0.0476,0.0492,0.0492,0.0504,0.0463,0.0464,0.0403,0.04,0.0362,0.0322,0.0293,0.0303,0.0259,0.0258,0.0261,0.0237,0.0257,0.0235,0.0253,0.0253,0.0253,0,0.0355,0.0373,0.0415,0.047,0.0484,0.051,0.0564,0.0583,0.059,0.059,0.0572,0.0544,0.0505,0.0456,0.0377,0.0387,0.0326,0.0286,0.0284,0.0258,0.0233,0.0253,0.0232,0.0251,0.0251,0.0251,0.0251,0,0.0374,0.0413,0.0452,0.0469,0.052,0.0548,0.0581,0.0607,0.0642,0.0646,0.0674,0.0614,0.0603,0.0518,0.0411,0.0399,0.0331,0.0306,0.0228,0.0226,0.0234,0.0232,0.0251,0.0251,0.0251,0.0251,0.0251,0,0.0398,0.0432,0.0464,0.0492,0.0555,0.058,0.0648,0.0671,0.0713,0.0768,0.0718,0.074,0.0617,0.0558,0.0448,0.0336,0.0354,0.0236,0.0219,0.024,0.0239,0.0246,0.0246,0.025,0.025,0.025,0.025,0,0.0416,0.0433,0.0487,0.0544,0.0565,0.0615,0.0705,0.0757,0.0788,0.086,0.087,0.0839,0.0762,0.0635,0.0505,0.0397,0.0287,0.024,0.0272,0.0258,0.0184,0.0186,0.0161,0.016,0.0159,0.0158,0.0158,0,0.0429,0.0451,0.0525,0.0567,0.0596,0.0667,0.0727,0.0786,0.0848,0.0921,0.0961,0.0916,0.088,0.0682,0.0496,0.0315,0.0284,0.021,0.0181,0.019,0.0175,0.0178,0.018,0.0198,0.0198,0.0198,0.0198,0,0.0457,0.0478,0.053,0.0611,0.0678,0.0761,0.0847,0.0906,0.0986,0.104,0.1087,0.1065,0.0895,0.0712,0.0473,0.0346,0.0239,0.02,0.0212,0.0213,0.0222,0.0209,0.021,0.0196,0.0196,0.0196,0.0197,0.0197,0.0484,0.0522,0.0586,0.067,0.0747,0.0844,0.0918,0.1,0.1094,0.117,0.1153,0.1114,0.0939,0.0617,0.0422,0.022,0.0228,0.0147,0.0149,0.0151,0.0156,0.0162,0.0126,0.0126,0.0125,0.0125,0.0125,0,0.0515,0.0562,0.0641,0.0748,0.0834,0.0868,0.0992,0.1055,0.1149,0.1193,0.1205,0.1018,0.0836,0.0631,0.034,0.0164,0.015,0.0097,0.013,0.0134,0.0136,0.014,0.0106,0.0105,0.0105,0.0104,0,0,0.0534,0.0606,0.0648,0.0794,0.0869,0.098,0.1046,0.1127,0.1173,0.1186,0.1154,0.1108,0.0884,0.0664,0.0441,0.0278,0.0238,0.0233,0.027,0.0341,0.0345,0.0189,0.0202,0,0,0,0,0]}],[{"header":{"parameterUnit":"m.s-1","parameterCategory":2,"la1":30.2991,"la2":30.254,"lo1":-89.0895,"lo2":-89.0444,"dy":0.0017,"dx":0.0017,"nx":28,"ny":28,"refTime":"2025-03-17T03:00:00:Z","depth":"4","parameterNumber":2,"parameterNumberName":"U-component_of_CURRENTS"},"data":[0,0,0,0,0,0,0,0,0,0,0,0,0,0,0,0,0,0,0,0,0,0,0,0,0,0,0,0,0,0,0,0,0,0,0,0,0,0,0,0,0,0,0,0,0,0,0,0,0,0,0,0,0,0,0,0,0,0,0.0805,0.0806,0,0.082,0.082,0.0819,0.0828,0.0829,0.0829,0.0829,0.0921,0.0923,0.0925,0,0,0,0,0,0,0,0,0,0,0,0,0,0.076,0.076,0.0805,0.0806,0.0806,0.082,0.082,0.0819,0.0828,0.0829,0.0829,0.083,0.092,0.0922,0.0925,0,0,0,0,0,0,0,0,0,0,0,0,0,0.0773,0.0761,0.0805,0.0815,0.0817,0.082,0.082,0.0819,0.0828,0.0829,0.0829,0.083,0.0919,0.0922,0.0925,0.0931,0,0,0.0934,0.0936,0,0,0,0,0,0,0,0,0.0773,0.0775,0.0813,0.0815,0.0816,0.0827,0.0837,0.0862,0.0828,0.0819,0.0829,0.083,0.0899,0.0903,0.0897,0.0935,0.0939,0.0935,0.0937,0.0938,0.0939,0,0,0,0,0,0,0,0.0772,0.0774,0.0806,0.0814,0.0816,0.0811,0.0814,0.0841,0.0853,0.082,0.0822,0.083,0.09,0.0894,0.09,0.094,0.0935,0.0937,0.0939,0.094,0.1066,0.1068,0,0,0,0,0,0,0.0779,0.0773,0.0806,0.0807,0.0801,0.0812,0.0814,0.0819,0.0851,0.0857,0.0829,0.083,0.0889,0.0896,0.0903,0.0978,0.0938,0.0941,0.0942,0.1065,0.1067,0.1068,0,0,0,0,0,0,0.0778,0.0782,0.0806,0.0794,0.0798,0.0813,0.0817,0.0819,0.0838,0.0858,0.0865,0.085,0.089,0.0899,0.0955,0.0979,0.0942,0.0945,0.1063,0.1065,0.1067,0.1085,0,0,0,0,0,0,0.0777,0.0781,0.0794,0.0795,0.0799,0.0826,0.0817,0.0819,0.0843,0.0845,0.0878,0.0885,0.0891,0.0951,0.0958,0.0983,0.0947,0.1061,0.1064,0.1067,0.1082,0.1087,0.1092,0,0,0,0,0,0.0775,0.0784,0.0795,0.0799,0.0813,0.0827,0.0829,0.0838,0.0843,0.0856,0.0885,0.0885,0.0974,0.0954,0.0963,0.0989,0.106,0.1063,0.1067,0.108,0.1086,0.1092,0,0,0,0,0,0,0.078,0.0786,0.0798,0.0812,0.0831,0.0831,0.0844,0.0852,0.088,0.0894,0.0906,0.0916,0.0974,0.0983,0.0961,0.1035,0.1017,0.1022,0.1024,0.103,0.1035,0.1045,0.095,0,0,0,0,0,0.0787,0.0794,0.0807,0.0826,0.0833,0.0844,0.0854,0.0867,0.0889,0.0901,0.0922,0.0954,0.0989,0.1012,0.1042,0.1083,0.1099,0.1107,0.1112,0.1115,0.1131,0.1182,0.1192,0.108,0.108,0.1079,0,0,0.0795,0.0804,0.0809,0.0828,0.0839,0.0849,0.0851,0.0879,0.0897,0.091,0.0946,0.0976,0.1006,0.1051,0.1077,0.1065,0.1152,0.112,0.1122,0.1136,0.1186,0.1197,0.1207,0.1082,0.1081,0.1081,0,0,0.0804,0.0824,0.0825,0.0837,0.0866,0.0876,0.0891,0.0908,0.0926,0.0967,0.0984,0.1035,0.1074,0.1102,0.112,0.1174,0.1178,0.1182,0.1212,0.1261,0.127,0.1279,0.1294,0.1304,0.1181,0.1181,0.1181,0,0.082,0.0821,0.0832,0.0837,0.0856,0.0889,0.0904,0.0921,0.0959,0.0988,0.0988,0.1075,0.1098,0.1162,0.1178,0.1185,0.1203,0.1182,0.1266,0.1275,0.1284,0.1297,0.1308,0.1182,0.1182,0.1182,0.1182,0,0.0813,0.0827,0.0833,0.0848,0.0872,0.0897,0.0925,0.096,0.0992,0.1016,0.1094,0.113,0.1189,0.1197,0.1203,0.1279,0.1268,0.1266,0.1247,0.1296,0.1307,0.1318,0.1184,0.1183,0.1183,0.1183,0,0,0.0819,0.0825,0.0829,0.0842,0.0885,0.0903,0.0948,0.0999,0.1036,0.1086,0.1143,0.1206,0.1245,0.127,0.1293,0.1329,0.1393,0.1326,0.1328,0.1332,0.1484,0.1355,0.1353,0.1407,0.141,0.1412,0.146,0,0.0818,0.0821,0.0833,0.0861,0.0872,0.0921,0.0956,0.1014,0.1068,0.1127,0.1195,0.1259,0.1266,0.1308,0.1352,0.1397,0.1427,0.138,0.1444,0.1446,0.1319,0.1364,0.142,0.1468,0.147,0.1472,0.1473,0,0.0802,0.0812,0.0829,0.0871,0.0881,0.091,0.0994,0.1037,0.1131,0.117,0.126,0.1312,0.1408,0.1392,0.1499,0.1472,0.1487,0.15,0.1502,0.1387,0.1337,0.1416,0.1493,0.1491,0.149,0.1488,0.1487,0,0.0789,0.0812,0.0832,0.0843,0.0891,0.0927,0.0977,0.1062,0.1111,0.1223,0.127,0.1381,0.1458,0.1509,0.1554,0.1543,0.1638,0.1624,0.1514,0.1504,0.1597,0.1588,0.1685,0.1685,0.1685,0.1685,0.1684,0,0.0773,0.0794,0.0827,0.0835,0.088,0.0929,0.0999,0.1054,0.1149,0.1214,0.1311,0.137,0.1496,0.1563,0.158,0.158,0.1669,0.153,0.1517,0.16,0.1591,0.1603,0.1593,0.1686,0.1686,0.1686,0.1685,0,0.0749,0.077,0.0795,0.0845,0.0871,0.0912,0.1007,0.105,0.1144,0.1236,0.1281,0.1405,0.1489,0.1561,0.1647,0.1606,0.1614,0.158,0.1654,0.1642,0.1438,0.1429,0.1477,0.1473,0.147,0.1467,0.1465,0,0.0731,0.0738,0.0793,0.0815,0.0842,0.091,0.0953,0.1047,0.11,0.1236,0.1275,0.1393,0.1461,0.1481,0.1553,0.157,0.1545,0.1532,0.1497,0.1439,0.1422,0.1418,0.1413,0.1459,0.1458,0.1458,0.1457,0,0.0701,0.0728,0.0743,0.0782,0.0825,0.0865,0.0942,0.097,0.1084,0.1179,0.1241,0.1281,0.1361,0.1421,0.1439,0.1444,0.1538,0.1497,0.1504,0.147,0.1418,0.1404,0.1403,0.1445,0.1447,0.1448,0.1448,0,0.0685,0.0682,0.0704,0.0736,0.0785,0.0803,0.0848,0.0908,0.0968,0.1123,0.1141,0.1244,0.1357,0.1353,0.1368,0.1367,0.1348,0.1299,0.1316,0.1329,0.1256,0.1167,0.1115,0,0,0,0,0,0.0662,0.0645,0.0658,0.0673,0.0716,0.0747,0.083,0.0878,0.0997,0.1013,0.1074,0.1134,0.1168,0.1221,0.1191,0.1289,0.1344,0.1246,0.1293,0.138,0.1394,0.1319,0,0,0,0,0,0,0.0645,0.0645,0.0631,0.0618,0.0624,0.0656,0.0706,0.0779,0.0803,0.0931,0.0966,0.1053,0.1114,0.1177,0.1168,0.1181,0.1182,0.1312,0.1309,0.1372,0.1385,0.1396,0.1324,0,0,0,0,0]},{"header":{"parameterUnit":"m.s-1","parameterCategory":2,"la1":30.2991,"la2":30.254,"lo1":-89.0895,"lo2":-89.0444,"dy":0.0017,"dx":0.0017,"nx":28,"ny":28,"refTime":"2025-03-17T03:00:00:Z","depth":"4","parameterNumber":3,"parameterNumberName":"V-component_of_CURRENTS"},"data":[0,0,0,0,0,0,0,0,0,0,0,0,0,0,0,0,0,0,0,0,0,0,0,0,0,0,0,0,0,0,0,0,0,0,0,0,0,0,0,0,0,0,0,0,0,0,0,0,0,0,0,0,0,0,0,0,0,0,0.052,0.0521,0,0.0515,0.0515,0.0515,0.0546,0.0547,0.0548,0.0549,0.0556,0.0555,0.0554,0,0,0,0,0,0,0,0,0,0,0,0,0,0.0505,0.0505,0.052,0.0521,0.0521,0.0515,0.0515,0.0515,0.0546,0.0547,0.0548,0.0549,0.0556,0.0555,0.0554,0,0,0,0,0,0,0,0,0,0,0,0,0,0.0505,0.0505,0.052,0.0537,0.0538,0.0515,0.0515,0.0515,0.0545,0.0547,0.0548,0.055,0.0556,0.0555,0.0554,0.0516,0,0,0.0551,0.055,0,0,0,0,0,0,0,0,0.0505,0.0506,0.0534,0.0535,0.0537,0.0534,0.0512,0.0516,0.0545,0.0541,0.0549,0.0551,0.055,0.0549,0.0542,0.0516,0.0517,0.055,0.055,0.0549,0.0549,0,0,0,0,0,0,0,0.0505,0.0506,0.0517,0.0534,0.0536,0.0526,0.0528,0.0513,0.0535,0.0541,0.0544,0.0545,0.0551,0.0543,0.0543,0.0517,0.055,0.0549,0.0549,0.0548,0.0486,0.0485,0,0,0,0,0,0,0.051,0.0506,0.0517,0.0517,0.0526,0.0526,0.0528,0.0532,0.0536,0.0538,0.0544,0.0547,0.0544,0.0544,0.0543,0.0525,0.0549,0.0548,0.0547,0.0486,0.0485,0.0484,0,0,0,0,0,0,0.051,0.0511,0.0517,0.0512,0.0513,0.0525,0.0529,0.0531,0.0538,0.0538,0.0541,0.055,0.0546,0.0545,0.0533,0.0525,0.0548,0.0547,0.0488,0.0486,0.0485,0.0473,0,0,0,0,0,0,0.0509,0.0511,0.0519,0.0513,0.0513,0.0505,0.0528,0.053,0.0536,0.054,0.0543,0.0545,0.0547,0.0534,0.0532,0.0524,0.0546,0.0489,0.0487,0.0485,0.0474,0.0471,0.0468,0,0,0,0,0,0.0509,0.0504,0.0519,0.0521,0.0523,0.0504,0.0503,0.0516,0.0535,0.0529,0.0534,0.0546,0.0521,0.0532,0.0529,0.0521,0.049,0.0488,0.0485,0.0476,0.0471,0.0468,0,0,0,0,0,0,0.0492,0.0507,0.0523,0.0523,0.0519,0.0511,0.0508,0.0517,0.0514,0.0522,0.053,0.053,0.0518,0.0515,0.0528,0.0496,0.0508,0.0505,0.0502,0.0498,0.0495,0.0504,0.0545,0,0,0,0,0,0.0494,0.0499,0.0506,0.0502,0.0506,0.051,0.0507,0.0512,0.0508,0.051,0.0515,0.0513,0.0501,0.0499,0.0488,0.0467,0.0454,0.0459,0.0456,0.0454,0.0457,0.042,0.0414,0.0477,0.0477,0.0477,0,0,0.0482,0.0493,0.0494,0.05,0.0502,0.0498,0.0512,0.0502,0.05,0.0508,0.0508,0.0502,0.0493,0.0474,0.0468,0.0474,0.0427,0.0451,0.0449,0.0454,0.0417,0.0411,0.0406,0.0476,0.0476,0.0476,0,0,0.0456,0.0476,0.0476,0.0478,0.0484,0.0485,0.0486,0.0485,0.0489,0.0477,0.0485,0.0473,0.0461,0.045,0.0443,0.0413,0.0412,0.0413,0.0405,0.0368,0.0363,0.0358,0.0328,0.0321,0.0411,0.0411,0.0411,0,0.0444,0.0456,0.0467,0.0469,0.0477,0.0483,0.0482,0.0475,0.0469,0.047,0.0478,0.0456,0.0448,0.0424,0.0416,0.0407,0.039,0.0423,0.0365,0.036,0.0355,0.0326,0.0318,0.041,0.041,0.041,0.041,0,0.0422,0.0439,0.0434,0.0452,0.0453,0.0448,0.0451,0.0449,0.0459,0.0457,0.0443,0.0424,0.0418,0.0405,0.0402,0.0366,0.0366,0.0366,0.0378,0.0349,0.0319,0.0311,0.0409,0.0409,0.041,0.041,0,0,0.0387,0.0417,0.0422,0.0442,0.0451,0.045,0.0443,0.0444,0.045,0.0433,0.0435,0.0401,0.0403,0.0394,0.0384,0.0348,0.0295,0.0346,0.0344,0.0322,0.0217,0.0223,0.0215,0.0286,0.0285,0.0284,0.0208,0,0.0376,0.0392,0.0407,0.0421,0.0435,0.0445,0.0445,0.0442,0.044,0.0438,0.0413,0.0408,0.0395,0.0396,0.0355,0.0318,0.0275,0.0316,0.0244,0.0242,0.0255,0.0206,0.028,0.0202,0.02,0.0198,0.0198,0,0.0363,0.0383,0.0401,0.0438,0.0446,0.0452,0.0471,0.047,0.0458,0.0456,0.0438,0.0426,0.0384,0.0375,0.0285,0.0315,0.0264,0.0226,0.0222,0.0229,0.0233,0.0237,0.0183,0.0184,0.0185,0.0186,0.0187,0,0.0358,0.0385,0.0409,0.0418,0.0448,0.0462,0.0482,0.0481,0.0489,0.0474,0.0476,0.0425,0.0414,0.0336,0.0264,0.0273,0.016,0.0163,0.0114,0.0114,0.014,0.0146,0.0083,0.0083,0.0083,0.0083,0.0083,0,0.0353,0.0375,0.0415,0.0431,0.0463,0.0481,0.0511,0.0514,0.052,0.0531,0.0497,0.0485,0.0403,0.0337,0.0259,0.0164,0.0153,0.0103,0.0089,0.0136,0.0142,0.0134,0.0141,0.008,0.0081,0.0082,0.0082,0,0.0345,0.037,0.0405,0.0449,0.0466,0.0495,0.0547,0.0564,0.0566,0.0576,0.0576,0.0527,0.0449,0.0353,0.0231,0.017,0.007,0.0035,0.009,0.0084,0.0049,0.0056,-0.0027,-0.0027,-0.0028,-0.0028,-0.0029,0,0.0343,0.0359,0.0421,0.0452,0.0478,0.0527,0.0561,0.0586,0.0608,0.06,0.0605,0.0541,0.0498,0.0327,0.0225,0.007,0.0051,-0.0005,0.0017,0.004,0.0035,0.0043,0.005,-0.0029,-0.0029,-0.003,-0.003,0,0.0339,0.0365,0.0398,0.0461,0.0511,0.056,0.0615,0.063,0.0656,0.0655,0.0624,0.0542,0.0456,0.0334,0.0215,0.0103,0.0029,-0.0011,-0.001,0.0011,0.0036,0.0033,0.0041,-0.0031,-0.0031,-0.0031,-0.0031,0,0.0339,0.0362,0.0411,0.0468,0.0529,0.0581,0.0611,0.0642,0.0661,0.0657,0.0644,0.055,0.0502,0.0349,0.0235,0.0131,0.011,0.0072,0.0068,0.0068,0.0123,0.017,0.0122,0,0,0,0,0,0.0338,0.0365,0.0414,0.0479,0.0541,0.0579,0.0638,0.0664,0.0688,0.067,0.0659,0.0578,0.0424,0.0359,0.0256,0.0223,0.0087,0.0098,0.004,-0.004,-0.0039,0.001,0,0,0,0,0,0,0.0336,0.0379,0.0406,0.0478,0.0523,0.0589,0.0631,0.065,0.0646,0.0651,0.0575,0.0544,0.0398,0.048,0.025,0.022,0.0167,0.0032,0.003,-0.0041,-0.004,-0.0038,0.0012,0,0,0,0,0]}]]